Sie sind vermutlich noch nicht im Forum angemeldet - Klicken Sie hier um sich kostenlos anzumelden  

Synchrondatenbank (von Arne Kaul) | Deutsche Synchronkartei | Seriensynchron - SeSyDaB | dubDB | Die vergessenen Filme || Datenschutz
Sie können sich hier anmelden
Dieses Forum hat 3.375 Themen
und zur Zeit 39.597 Beiträge
Sie haben keine Schreibrechte
 Spielfilme 1990 bis 2009  »Neues Thema erstellen«
Forum Information
   Betreff Absender Antworten Zugriffe Letzter Beitrag
Serial Mom - Warum lässt Mama das Morden nicht? (1993) dlh 6 643 19.04.2018 18:45
Story Of Ricky (1, 2) ElEf 23 1.320 17.04.2018 15:41
Prayers for Bobby (2008; DF: 2009) Frank Brenner 2 196 17.04.2018 15:24
Bolt - Ein Hund für alle Fälle (2008) Frank Brenner 11 1.538 15.04.2018 13:09
LOONEY TUNES Back In Action neusynchrosmachenalleskaputt 14 1.364 10.04.2018 15:47
Breaking the Waves (DK/NO/SE/FR/NL 1996) Silenzio 3 139 10.04.2018 01:22
Freundschaft, Liebe, Rache (Vento di mare) Gianfranco Mingozzi 1991 kogenta 0 110 10.04.2018 01:13
Lapitch, der kleine Schuhmacher (D/HR 1997) Edigrieg 5 191 08.04.2018 19:41
Power Rangers - Der Film (USA, 1995) hudemx 12 526 04.04.2018 17:46
Bube, Dame, Koenig grAS (Lock, stock and two smoking barrels, GB) rote Blume 13 1.403 04.04.2018 10:28
Hellraiser III: Hell on Earth (1992) WasGehtSieDasAn 11 778 30.03.2018 19:30
Mr. Jones (USA 1993) Silenzio 0 165 26.03.2018 22:24
Teuflisch (USA 2000) VanToby 3 204 26.03.2018 01:37
2 Tage in L.A. (USA 1996) Wilkins 0 155 25.03.2018 17:08
Barbie als Prinzessin und das Dorfmädchen Besetzungsliste Mew Mew 1 1.263 21.03.2018 21:41
Die Asche meiner Mutter (1999; DF: 2000) Frank Brenner 3 237 20.03.2018 20:14
Nightmare Lover (USA 1993) Silenzio 5 245 19.03.2018 02:09
Bernard & Bianca im Känguruland (1990) Edigrieg 3 396 17.03.2018 12:49
The Invincible Iron Man (2007) hudemx 1 337 16.03.2018 12:24
August (1995; DF: 1996) Frank Brenner 6 352 14.03.2018 16:30
Fires Within (USA 1991) Silenzio 0 156 13.03.2018 00:36
Die Borgia (2006) Torben 2 194 12.03.2018 23:32
Jeanne d'Arc - Die Frau des Jahrtausends (1999) Torben 3 287 12.03.2018 18:34
The Skulls 3, am Samstag 12.04. Das Auge 6 583 09.03.2018 16:14
Timber Falls (USA 2007) Mew Mew 4 592 05.03.2018 00:40
Meine ... und ich (3 Filme) VanToby 5 448 04.03.2018 22:52
Super Mario Bros. (1993) dlh 5 686 21.02.2018 15:37
Das Rückgrat des Teufels (2001) Wilkins 2 236 18.02.2018 01:33
Cronos (1993) (DF: 1996) Wilkins 4 264 18.02.2018 01:18
Der Mann, der niemals starb (USA 1994) Silenzio 0 208 15.02.2018 02:02
Die Unglaublichen - The Incedible (1, 2) Scooby Doo 20 3.899 13.02.2018 19:57
Die Noorderlinger (Niederlande 1992) Silenzio 1 219 13.02.2018 06:46
Deep Impact (USA 1998) Silenzio 9 1.681 12.02.2018 17:01
Die nackte Kanone 33 1/3 (1994) Frank Brenner 6 648 05.02.2018 11:00
Die nackte Kanone 2 1/2 (1, 2) Dr Jones 15 2.181 28.01.2018 19:48
A Nightmare Before Christmas (1, 2) Buscemi 15 1.703 24.01.2018 13:52
Billy Madison - Ein Chaot zum Verlieben (1995) Schlitzi 11 989 20.01.2018 20:50
Happy Gilmore Schlitzi 6 676 20.01.2018 20:04
Happy End (2003) VanToby 3 382 17.01.2018 14:47
Tim Burton's Corpse Bride - Hochzeit mit einer Leiche (1, 2) Knew-King 21 2.939 17.01.2018 10:06
 Sprung Seite « zurück  1 - 5  6  7  8  9  10  11  12 - 85  weiter »

Farb-Legende: blau = Spekulation, orange = Trailer-Besetzung, grün = endgültige Besetzung, rot = Korrektur/Ergänzung zur endgültigen Besetzung


Wir lieben Synchron.
Erreichbar unter
215072.homepagemodules.de -- forum.serien-synchron.de

Weitere Smileys auf www.smilie-harvester.de


Xobor Forum Software von Xobor | Forum, Fotos, Chat und mehr mit Xobor
Datenschutz